EW4561 Weather Reports


Display with metric or nautical units.
time (UTC)temp
F
wind
direction
speed
MPH
gust
MPH
rain 1hr
in
rain 24hr
in
rain mn
in
humidity
%
barometer
mb
20180925044205 65 70 4.0 13.0 0.00 0.00 0.00 51 1022.2
20180925043606 65 65 4.0 14.0 0.00 0.00 0.00 50 1022.3
20180925043005 66 84 4.0 14.0 0.00 0.00 0.00 49 1022.3
20180925042404 65 106 4.0 10.0 0.00 0.00 0.00 51 1022.4
20180925041804 65 70 3.0 10.0 0.00 0.00 0.00 51 1022.6
20180925041204 65 110 3.0 7.0 0.00 0.00 0.00 51 1022.7
20180925040604 65 111 4.0 7.0 0.00 0.00 0.00 51 1022.8
20180925040005 65 62 4.0 9.0 0.00 0.00 0.00 51 1022.8
20180925035405 65 40 4.0 9.0 0.00 0.00 0.00 48 1022.8
20180925034804 65 18 4.0 9.0 0.00 0.00 0.00 47 1022.9
20180925034204 65 16 3.0 9.0 0.00 0.00 0.00 47 1023.0
20180925033605 65 56 2.0 8.0 0.00 0.00 0.00 47 1023.1
20180925033004 66 43 2.0 8.0 0.00 0.00 0.00 47 1023.3
20180925032405 66 54 2.0 5.0 0.00 0.00 0.00 46 1023.4
20180925031804 66 36 3.0 6.0 0.00 0.00 0.00 47 1023.4
20180925031204 65 72 4.0 6.0 0.00 0.00 0.00 47 1023.5
20180925030605 65 53 3.0 8.0 0.00 0.00 0.00 46 1023.8
20180925030005 67 34 3.0 9.0 0.00 0.00 0.00 46 1023.8
20180925025404 67 16 4.0 7.0 0.00 0.00 0.00 47 1023.9
20180925024804 65 24 4.0 10.0 0.00 0.00 0.00 48 1024.0
20180925024205 67 28 4.0 8.0 0.00 0.00 0.00 47 1024.1
20180925023605 65 43 4.0 11.0 0.00 0.00 0.00 50 1024.2
20180925023004 64 51 3.0 11.0 0.00 0.00 0.00 51 1024.3
20180925022404 66 30 3.0 10.0 0.00 0.00 0.00 49 1024.5
20180925021805 64 4 3.0 7.0 0.00 0.00 0.00 51 1024.6
20180925021205 65 39 2.0 7.0 0.00 0.00 0.00 51 1024.8
20180925020604 66 49 2.0 6.0 0.00 0.00 0.00 49 1024.9
20180925020004 65 27 2.0 5.0 0.00 0.00 0.00 51 1025.0
20180925015404 64 29 2.0 5.0 0.00 0.00 0.00 52 1025.3
20180925014804 63 64 2.0 6.0 0.00 0.00 0.00 55 1025.4
20180925014204 63 359 2.0 4.0 0.00 0.00 0.00 55 1025.6
20180925013604 62 8 3.0 6.0 0.00 0.00 0.00 54 1025.7
20180925013005 62 53 3.0 7.0 0.00 0.00 0.00 54 1025.9
20180925012405 63 47 3.0 10.0 0.00 0.00 0.00 54 1026.0
20180925011805 62 68 2.0 10.0 0.00 0.00 0.00 56 1026.0
20180925011204 64 84 2.0 7.0 0.00 0.00 0.00 55 1026.1
20180925010605 62 73 3.0 7.0 0.00 0.00 0.00 58 1026.2
20180925010005 62 116 3.0 8.0 0.00 0.00 0.00 60 1026.3
20180925005404 60 123 2.0 8.0 0.00 0.00 0.00 61 1026.5
20180925004804 62 72 1.0 6.0 0.00 0.00 0.00 60 1026.7
20180925004205 61 65 1.0 4.0 0.00 0.00 0.00 61 1026.6
20180925003604 60 51 2.0 6.0 0.00 0.00 0.00 62 1026.8
20180925003004 60 95 1.0 9.0 0.00 0.00 0.00 63 1026.8
20180925002405 61 144 0.0 9.0 0.00 0.00 0.00 61 1026.8
20180925001804 60 337 0.0 2.0 0.00 0.00 0.00 62 1027.0
20180925001206 60 18 1.0 4.0 0.00 0.00 0.00 62 1027.0
20180925000604 60 58 2.0 3.0 0.00 0.00 0.00 62 1027.0
20180925000006 60 88 1.0 4.0 0.00 0.00 0.00 63 1027.0
20180924235404 60 125 1.0 4.0 0.00 0.00 0.00 62 1027.1
20180924234804 60 100 2.0 4.0 0.00 0.00 0.00 63 1027.2
20180924234204 60 127 2.0 6.0 0.00 0.00 0.00 63 1027.2
20180924233604 60 140 2.0 6.0 0.00 0.00 0.00 63 1027.3
20180924233005 59 152 3.0 6.0 0.00 0.00 0.00 65 1027.4
20180924232405 59 154 3.0 6.0 0.00 0.00 0.00 65 1027.5
20180924231804 60 143 2.0 7.0 0.00 0.00 0.00 63 1027.6
20180924231205 59 144 1.0 7.0 0.00 0.00 0.00 66 1027.6
20180924230605 58 263 1.0 3.0 0.00 0.00 0.00 66 1027.7
20180924230004 59 356 2.0 4.0 0.00 0.00 0.00 65 1027.7
20180924225404 58 341 1.0 5.0 0.00 0.00 0.00 67 1027.7
20180924224804 58 278 1.0 3.0 0.00 0.00 0.00 67 1027.7
20180924224204 58 244 1.0 3.0 0.00 0.00 0.00 66 1027.7
20180924223605 58 162 2.0 4.0 0.00 0.00 0.00 68 1027.7
20180924223005 57 171 2.0 5.0 0.00 0.00 0.00 69 1027.7
20180924222405 57 159 2.0 5.0 0.00 0.00 0.00 69 1027.7
20180924221804 57 175 2.0 4.0 0.00 0.00 0.00 69 1027.6
20180924221205 57 209 2.0 4.0 0.00 0.00 0.00 70 1027.6
20180924220604 56 228 2.0 4.0 0.00 0.00 0.00 70 1027.6
20180924220005 56 218 2.0 5.0 0.00 0.00 0.00 70 1027.6
20180924215404 56 194 2.0 5.0 0.00 0.00 0.00 71 1027.6
20180924214805 56 207 1.0 4.0 0.00 0.00 0.00 71 1027.6
20180924214205 56 263 1.0 4.0 0.00 0.00 0.00 72 1027.6
20180924213605 55 17 0.0 3.0 0.00 0.00 0.00 74 1027.6
20180924213004 55 17 0.0 2.0 0.00 0.00 0.00 76 1027.6
20180924212404 54 0 0.0 0.0 0.00 0.00 0.00 78 1027.5
20180924211805 53 0 0.0 0.0 0.00 0.00 0.00 79 1027.5
20180924211205 53 0 0.0 0.0 0.00 0.00 0.00 79 1027.5
20180924210604 53 0 0.0 0.0 0.00 0.00 0.00 79 1027.4
20180924210005 52 0 0.0 0.0 0.00 0.00 0.00 80 1027.3
20180924205405 52 0 0.0 0.0 0.00 0.00 0.00 80 1027.2
20180924204804 52 0 0.0 0.0 0.00 0.00 0.00 81 1027.2
20180924204204 51 18 0.0 1.0 0.00 0.00 0.00 81 1027.1
20180924203604 51 17 0.0 2.0 0.00 0.00 0.00 82 1027.0
20180924203005 51 17 0.0 2.0 0.00 0.00 0.00 82 1027.0
20180924202405 51 18 0.0 1.0 0.00 0.00 0.00 82 1027.0
20180924201804 51 18 0.0 2.0 0.00 0.00 0.00 82 1027.0
20180924201205 51 18 0.0 2.0 0.00 0.00 0.00 82 1026.9
20180924200605 51 0 0.0 0.0 0.00 0.00 0.00 82 1026.9
20180924200005 50 0 0.0 0.0 0.00 0.00 0.00 82 1026.8
20180924195404 50 0 0.0 0.0 0.00 0.00 0.00 82 1026.8
20180924194805 50 0 0.0 0.0 0.00 0.00 0.00 82 1026.8
20180924194205 50 0 0.0 0.0 0.00 0.00 0.00 83 1026.7
20180924193605 50 0 0.0 0.0 0.00 0.00 0.00 83 1026.7
20180924193005 50 0 0.0 0.0 0.00 0.00 0.00 83 1026.8
20180924192405 50 0 0.0 0.0 0.00 0.00 0.00 83 1026.7
20180924191805 50 0 0.0 0.0 0.00 0.00 0.00 83 1026.7
20180924191205 50 0 0.0 0.0 0.00 0.00 0.00 83 1026.7
20180924190605 50 0 0.0 0.0 0.00 0.00 0.00 83 1026.6
20180924190004 50 0 0.0 0.0 0.00 0.00 0.00 83 1026.6
20180924185404 50 0 0.0 0.0 0.00 0.00 0.00 83 1026.6
20180924184804 50 0 0.0 0.0 0.00 0.00 0.00 83 1026.6
20180924184204 50 0 0.0 0.0 0.00 0.00 0.00 82 1026.5
20180924183604 50 14 0.0 1.0 0.00 0.00 0.00 82 1026.5
20180924183005 50 14 0.0 2.0 0.00 0.00 0.00 82 1026.5
20180924182405 50 14 0.0 2.0 0.00 0.00 0.00 81 1026.5
20180924181805 50 0 0.0 0.0 0.00 0.00 0.00 81 1026.5
20180924181205 50 0 0.0 0.0 0.00 0.00 0.00 81 1026.5
20180924180605 50 0 0.0 0.0 0.00 0.00 0.00 81 1026.5
20180924180005 50 9 0.0 4.0 0.00 0.00 0.00 81 1026.5
20180924175405 50 7 0.0 4.0 0.00 0.00 0.00 81 1026.4
20180924174804 50 0 0.0 0.0 0.00 0.00 0.00 81 1026.4
20180924174204 50 0 0.0 0.0 0.00 0.00 0.00 81 1026.4
20180924173604 50 0 0.0 0.0 0.00 0.00 0.00 81 1026.4
20180924173005 50 0 0.0 0.0 0.00 0.00 0.00 81 1026.4
20180924172406 50 0 0.0 0.0 0.00 0.00 0.00 81 1026.5
20180924171805 50 0 0.0 0.0 0.00 0.00 0.00 81 1026.4
20180924171205 50 0 0.0 0.0 0.00 0.00 0.00 81 1026.5
20180924170605 50 0 0.0 0.0 0.00 0.00 0.00 81 1026.5
20180924170004 50 0 0.0 0.0 0.00 0.00 0.00 81 1026.6
20180924165404 50 0 0.0 0.0 0.00 0.00 0.00 81 1026.6
20180924164805 50 0 0.0 0.0 0.00 0.00 0.00 80 1026.6
20180924164205 50 0 0.0 0.0 0.00 0.00 0.00 80 1026.6
20180924163605 50 0 0.0 0.0 0.00 0.00 0.00 80 1026.6
20180924163007 50 0 0.0 0.0 0.00 0.00 0.00 80 1026.6
20180924162405 50 0 0.0 0.0 0.00 0.00 0.00 80 1026.7
20180924161805 50 0 0.0 0.0 0.00 0.00 0.00 80 1026.7
20180924161205 50 0 0.0 0.0 0.00 0.00 0.00 80 1026.8
20180924160604 50 0 0.0 0.0 0.00 0.00 0.00 80 1026.8
20180924160004 50 0 0.0 0.0 0.00 0.00 0.00 79 1026.8
20180924155405 50 0 0.0 0.0 0.00 0.00 0.00 79 1026.9
20180924154805 50 0 0.0 0.0 0.00 0.00 0.00 79 1026.9
20180924154205 51 0 0.0 0.0 0.00 0.00 0.00 79 1027.0
20180924153605 51 0 0.0 0.0 0.00 0.00 0.00 78 1027.0
20180924153005 51 0 0.0 0.0 0.00 0.00 0.00 79 1027.1
20180924152404 51 0 0.0 0.0 0.00 0.00 0.00 79 1027.2
20180924151805 51 0 0.0 0.0 0.00 0.00 0.00 79 1027.2
20180924151205 50 0 0.0 0.0 0.00 0.00 0.00 79 1027.3
20180924150605 50 0 0.0 0.0 0.00 0.00 0.00 80 1027.4
20180924150005 50 0 0.0 0.0 0.00 0.00 0.00 80 1027.5
20180924145405 50 0 0.0 0.0 0.00 0.00 0.00 80 1027.5
20180924144805 50 0 0.0 0.0 0.00 0.00 0.00 80 1027.6
20180924144204 50 0 0.0 0.0 0.00 0.00 0.00 80 1027.6
20180924143604 50 0 0.0 0.0 0.00 0.00 0.00 81 1027.6
20180924143005 49 0 0.0 0.0 0.00 0.00 0.00 81 1027.7
20180924142404 49 0 0.0 0.0 0.00 0.00 0.00 81 1027.7
20180924141804 49 0 0.0 0.0 0.00 0.00 0.00 81 1027.8
20180924141204 49 0 0.0 0.0 0.00 0.00 0.00 81 1027.8
20180924140605 49 0 0.0 0.0 0.00 0.00 0.00 81 1027.8
20180924140005 49 0 0.0 0.0 0.00 0.00 0.00 81 1027.8
20180924135404 49 0 0.0 0.0 0.00 0.00 0.00 81 1027.8
20180924134804 49 202 0.0 1.0 0.00 0.00 0.00 81 1027.8
20180924133005 49 192 0.0 3.0 0.00 0.00 0.00 81 1027.8
20180924132405 49 197 1.0 2.0 0.00 0.00 0.00 80 1027.8
20180924131805 50 213 2.0 3.0 0.00 0.00 0.00 80 1027.9
20180924131205 50 197 2.0 4.0 0.00 0.00 0.00 80 1027.9
20180924130604 50 182 2.0 4.0 0.00 0.00 0.00 80 1027.9
20180924130005 50 198 2.0 4.0 0.00 0.00 0.00 80 1027.9
20180924125405 50 206 1.0 4.0 0.00 0.00 0.00 80 1028.0
20180924124805 50 211 0.0 3.0 0.00 0.00 0.00 80 1028.1
20180924124205 50 0 0.0 0.0 0.00 0.00 0.00 81 1028.1
20180924123605 50 0 0.0 0.0 0.00 0.00 0.00 80 1028.0
20180924123005 50 0 0.0 0.0 0.00 0.00 0.00 80 1028.0
20180924122405 50 0 0.0 0.0 0.00 0.00 0.00 80 1028.1
20180924121805 51 216 1.0 2.0 0.00 0.00 0.00 80 1028.1
20180924121205 51 217 1.0 3.0 0.00 0.00 0.00 80 1028.1
20180924120605 51 217 1.0 3.0 0.00 0.00 0.00 80 1028.1
20180924120004 51 210 2.0 3.0 0.00 0.00 0.00 79 1028.2
20180924115405 51 186 2.0 3.0 0.00 0.00 0.00 79 1028.1
20180924114805 51 181 2.0 4.0 0.00 0.00 0.00 79 1028.2
20180924114205 51 191 2.0 4.0 0.00 0.00 0.00 78 1028.2
20180924113605 52 226 2.0 4.0 0.00 0.00 0.00 78 1028.2
20180924113006 52 232 2.0 3.0 0.00 0.00 0.00 77 1028.2
20180924112541 52 230 2.0 4.0 0.00 0.00 0.00 77 1028.2
20180924111804 53 234 2.0 5.0 0.00 0.00 0.00 76 1028.2
20180924111205 53 238 2.0 5.0 0.00 0.00 0.00 76 1028.3
20180924110605 53 232 2.0 4.0 0.00 0.00 0.00 76 1028.3
20180924110005 53 204 2.0 4.0 0.00 0.00 0.00 76 1028.3
20180924105404 53 173 3.0 6.0 0.00 0.00 0.00 76 1028.4
20180924104806 54 170 4.0 7.0 0.00 0.00 0.00 75 1028.4
20180924104205 54 175 4.0 7.0 0.00 0.00 0.00 75 1028.4
20180924103606 54 175 4.0 6.0 0.00 0.00 0.00 74 1028.4
20180924103006 54 168 3.0 6.0 0.00 0.00 0.00 73 1028.4
20180924102405 54 160 3.0 6.0 0.00 0.00 0.00 73 1028.4
20180924101805 55 163 3.0 6.0 0.00 0.00 0.00 73 1028.4
20180924101205 55 170 3.0 6.0 0.00 0.00 0.00 72 1028.4
20180924100604 55 177 3.0 6.0 0.00 0.00 0.00 72 1028.5
20180924100005 55 175 3.0 6.0 0.00 0.00 0.00 72 1028.4
20180924095405 55 179 3.0 6.0 0.00 0.00 0.00 71 1028.4
20180924094805 55 178 4.0 8.0 0.00 0.00 0.00 71 1028.4
20180924094206 56 178 4.0 8.0 0.00 0.00 0.00 71 1028.3
20180924093605 56 170 4.0 6.0 0.00 0.00 0.00 70 1028.3
20180924093006 56 173 4.0 8.0 0.00 0.00 0.00 70 1028.3
20180924092406 56 167 4.0 8.0 0.00 0.00 0.00 70 1028.2
20180924091809 56 160 5.0 7.0 0.00 0.00 0.00 70 1028.1
20180924091205 56 147 6.0 9.0 0.00 0.00 0.00 70 1028.1
20180924090605 56 148 5.0 12.0 0.00 0.00 0.00 70 1028.1
20180924090004 56 147 4.0 12.0 0.00 0.00 0.00 69 1028.1
20180924085405 56 146 4.0 10.0 0.00 0.00 0.00 69 1028.0
20180924084805 56 143 4.0 10.0 0.00 0.00 0.00 68 1027.9
20180924084205 56 147 4.0 10.0 0.00 0.00 0.00 68 1027.9
20180924083605 56 150 4.0 8.0 0.00 0.00 0.00 68 1027.8
20180924083005 56 155 4.0 8.0 0.00 0.00 0.00 68 1027.8
20180924082405 56 148 4.0 8.0 0.00 0.00 0.00 69 1027.7
20180924081205 57 144 6.0 10.0 0.00 0.00 0.00 69 1027.6
20180924080605 57 145 6.0 13.0 0.00 0.00 0.00 68 1027.6
20180924080005 57 141 6.0 13.0 0.00 0.00 0.00 68 1027.5
20180924075405 57 138 6.0 12.0 0.00 0.00 0.00 68 1027.5
20180924074805 57 133 7.0 12.0 0.00 0.00 0.00 68 1027.5
20180924074205 57 136 6.0 13.0 0.00 0.00 0.00 67 1027.4
20180924073605 57 134 6.0 13.0 0.00 0.00 0.00 68 1027.5
20180924073005 58 132 6.0 11.0 0.00 0.00 0.00 68 1027.4
20180924072405 58 132 6.0 12.0 0.00 0.00 0.00 67 1027.4
20180924071805 58 133 5.0 13.0 0.00 0.00 0.00 66 1027.4
20180924071205 58 125 4.0 13.0 0.00 0.00 0.00 66 1027.4
20180924070605 58 119 4.0 10.0 0.00 0.00 0.00 65 1027.3
20180924070006 58 121 4.0 11.0 0.00 0.00 0.00 64 1027.3
20180924065404 58 112 4.0 14.0 0.00 0.00 0.00 64 1027.1
20180924064805 58 116 4.0 14.0 0.00 0.00 0.00 65 1027.2
20180924064205 58 122 4.0 13.0 0.00 0.00 0.00 65 1027.1
20180924063606 58 128 4.0 13.0 0.00 0.00 0.00 66 1027.2
20180924063006 58 128 5.0 9.0 0.00 0.00 0.00 66 1027.1
20180924062405 58 122 5.0 13.0 0.00 0.00 0.00 66 1027.1
20180924061805 59 125 5.0 13.0 0.00 0.00 0.00 66 1027.1
20180924061205 59 129 5.0 12.0 0.00 0.00 0.00 65 1026.9
20180924060605 59 131 6.0 13.0 0.00 0.00 0.00 64 1026.9
20180924060005 59 122 6.0 13.0 0.00 0.00 0.00 64 1026.8
20180924055405 59 117 6.0 13.0 0.00 0.00 0.00 64 1026.8
20180924054805 59 124 5.0 14.0 0.00 0.00 0.00 63 1026.9
20180924054206 60 131 4.0 14.0 0.00 0.00 0.00 61 1026.8
20180924053605 60 131 5.0 11.0 0.00 0.00 0.00 60 1026.8
20180924053006 60 128 6.0 11.0 0.00 0.00 0.00 60 1026.8
20180924052405 60 126 7.0 12.0 0.00 0.00 0.00 61 1026.7
20180924051805 60 131 6.0 14.0 0.00 0.00 0.00 61 1026.8
20180924051205 60 127 6.0 15.0 0.00 0.00 0.00 62 1026.8
20180924050605 60 128 5.0 15.0 0.00 0.00 0.00 61 1026.8
20180924050005 60 121 4.0 17.0 0.00 0.00 0.00 60 1026.8
20180924045405 60 115 4.0 10.0 0.00 0.00 0.00 60 1026.8
20180924044805 60 119 5.0 12.0 0.00 0.00 0.00 61 1026.8